Terug naar catalogus

COSMOS 1024 DEB

LostHEO
NORAD 26975·DEBRIS·🇷🇺 Russia

Gelanceerd Jun 28, 1978 vanaf Plesetsk Cosmodrome

Loading…

Volgende Passages (komende 24 uur)

TLE

VerouderdSource: Space-Track

Epoch: Sep 14, 2025, 22:35 UTC

1 26975U 78066F   25257.94102217  .00000138  00000-0  00000-0 0  9995
2 26975  65.4674  96.6522 6281946 343.4588   3.0392  2.05701639211974

Volg COSMOS 1024 DEB in realtime met AllMySat

Download on the App Store